If you wish to contribute or participate in the discussions about articles you are invited to join SKYbrary as a registered user

 Actions

Kitadaito Airport

From SKYbrary Wiki

RORK
Airport
ICAO: RORK – IATA: KTD
Summary
Name Kitadaito Airport
Region Asia and Pacific
Territory Japan JP.gif
Location Kitadaito, Okinawa Prefecture
Serving Kitadaitojima
Elevation 21.641 m
71 ft21.641 m
Coordinates 25° 56' 40.41" N, 131° 19' 28.05" E
Runways
Designator Length Width Surface ROPS
3/21 1500 m4,921.26 ft
45 m147.638 ft
ASP /


METAR
Observation RORK 252100Z AUTO 22005KT 9999 NSC 22/21 Q1017
Station Kitadaito Island
Date/Time 25 February 2020 21:00:00
Wind direction 220°
Wind speed 05 kts
Lowest cloud amount nil significant cloud
Temperature 22°C
Dew point 21°C
Humidity 94%
QNH 1017 hPa
Weather condition n/a

Kitadaitō Airport is located on the island of Kitadaitōjima in the village of Kitadaitō, Shimajiri District, Okinawa Prefecture, Japan.

Climatology

Humid Sub-tropical climate (Köppen climate classification Cfa)

Maps

Terrain

Loading map...

Airport Layout

Loading map...


Accidents & Serious Incidents at or in vicinity of RORK

None on SKYbrary